[[{"header":{"parameterUnit":"m.s-1","parameterCategory":1,"la1":30.2991,"la2":30.254,"lo1":-89.0895,"lo2":-89.0444,"dy":0.0017,"dx":0.0017,"nx":28,"ny":28,"refTime":"2024-08-06T21:00:00:Z","depth":0,"parameterNumber":2,"parameterNumberName":"U-component_of_WINDS"},"data":[0,0,0,0,0,0,0,0,0,0,0,0,0,0,0,0,0,0,0,0,0,0,0,0,0,0,0,0,0,0,0,0,0,0,0,0,0,0,0,0,0,0,0,0,0,0,0,0,0,0,0,0,0,0,0,0,0,0,2.2801,2.2802,0,2.2857,2.2858,2.2859,2.2845,2.2844,2.2843,2.2842,2.2905,2.2907,2.291,0,0,0,0,0,0,0,0,0,0,0,0,0,2.2691,2.2693,2.2801,2.2802,2.2803,2.2857,2.2858,2.2859,2.2845,2.2844,2.2843,2.2841,2.2904,2.2907,2.291,0,0,0,0,0,0,0,0,0,0,0,0,0,2.2742,2.2693,2.2801,2.2803,2.2803,2.2857,2.2858,2.2859,2.2846,2.2844,2.2842,2.2841,2.2903,2.2907,2.2911,2.2968,0,0,2.2923,2.2925,0,0,0,0,0,0,0,0,2.2739,2.2746,2.2802,2.2803,2.2803,2.2842,2.2842,2.2896,2.2846,2.283,2.2842,2.284,2.2886,2.2891,2.2905,2.2971,2.2974,2.2923,2.2926,2.2927,2.2929,0,0,0,0,0,0,0,2.2736,2.2744,2.2824,2.2803,2.2804,2.2803,2.2808,2.2852,2.2866,2.2831,2.283,2.2837,2.2886,2.2901,2.2907,2.2975,2.2923,2.2927,2.2929,2.2931,2.3096,2.3098,0,0,0,0,0,0,2.273,2.2741,2.2822,2.2825,2.2766,2.2806,2.2812,2.2832,2.2866,2.2869,2.2838,2.2836,2.2895,2.2902,2.2909,2.2981,2.2927,2.2931,2.2933,2.3094,2.3096,2.3098,0,0,0,0,0,0,2.2728,2.2738,2.282,2.2783,2.2793,2.281,2.2832,2.2834,2.2849,2.2871,2.2874,2.2851,2.2894,2.2903,2.2954,2.2983,2.2933,2.2937,2.3092,2.3095,2.3097,2.3125,0,0,0,0,0,0,2.2725,2.2737,2.2757,2.2783,2.2795,2.2862,2.2833,2.2836,2.2855,2.2853,2.2884,2.2887,2.2894,2.2948,2.2958,2.2988,2.294,2.3089,2.3093,2.3096,2.3122,2.3129,2.3134,0,0,0,0,0,2.2721,2.2763,2.2758,2.2768,2.282,2.2863,2.287,2.2875,2.2858,2.288,2.2894,2.2886,2.2978,2.2954,2.2965,2.2996,2.3087,2.3092,2.3096,2.3119,2.3127,2.3134,0,0,0,0,0,0,2.274,2.2766,2.2761,2.2812,2.2836,2.2861,2.2888,2.2883,2.2913,2.291,2.2917,2.2924,2.2977,2.2991,2.2963,2.3056,2.3031,2.3038,2.3044,2.3052,2.3059,2.3055,2.2943,0,0,0,0,0,2.275,2.2781,2.2803,2.2846,2.2858,2.2871,2.289,2.2892,2.2917,2.2927,2.2946,2.2972,2.3008,2.3031,2.3064,2.3124,2.3132,2.3151,2.3158,2.3163,2.3169,2.3206,2.3215,2.3113,2.3113,2.3113,0,0,2.2772,2.279,2.2809,2.285,2.2869,2.2903,2.288,2.2916,2.2943,2.2934,2.2983,2.2998,2.3029,2.3085,2.3111,2.3099,2.3199,2.3168,2.3172,2.3176,2.3211,2.3221,2.323,2.3116,2.3115,2.3115,0,0,2.2828,2.2844,2.2883,2.2902,2.293,2.2939,2.2949,2.2976,2.2985,2.3034,2.3029,2.3063,2.3122,2.3145,2.3164,2.3234,2.3229,2.3245,2.3279,2.3314,2.3322,2.333,2.3357,2.3367,2.3251,2.3251,2.3251,0,2.2852,2.2901,2.2904,2.2942,2.2962,2.2955,2.2996,2.3016,2.3054,2.3069,2.3055,2.3132,2.3152,2.3215,2.3233,2.3248,2.3262,2.3241,2.3321,2.3328,2.3335,2.3361,2.3371,2.3253,2.3253,2.3252,2.3252,0,2.293,2.2965,2.2993,2.303,2.3053,2.3093,2.3105,2.3129,2.313,2.3141,2.3194,2.3218,2.3258,2.3273,2.3274,2.3338,2.3331,2.3318,2.3293,2.3346,2.3372,2.3381,2.3255,2.3255,2.3254,2.3254,0,0,2.2998,2.3038,2.3048,2.3066,2.3098,2.3127,2.3168,2.3206,2.3228,2.3255,2.3292,2.3344,2.3334,2.3357,2.3361,2.3392,2.345,2.3377,2.3378,2.3391,2.3526,2.3536,2.3547,2.3447,2.3448,2.345,2.3524,0,2.306,2.313,2.3135,2.32,2.3234,2.323,2.3266,2.3292,2.3305,2.3338,2.3353,2.3391,2.3373,2.3388,2.3418,2.3436,2.3477,2.3431,2.3484,2.3486,2.3477,2.356,2.3569,2.3638,2.3534,2.3535,2.3536,0,2.3139,2.3169,2.3237,2.3267,2.3282,2.3314,2.3351,2.3382,2.3412,2.342,2.3447,2.3448,2.3494,2.3467,2.3533,2.3501,2.3524,2.3537,2.354,2.3546,2.3515,2.357,2.3659,2.3671,2.3551,2.355,2.3549,0,2.3186,2.3243,2.3292,2.3307,2.3343,2.3366,2.3383,2.3411,2.3435,2.3468,2.3484,2.3523,2.3545,2.3576,2.359,2.3568,2.3656,2.3629,2.3667,2.3666,2.3686,2.3684,2.3782,2.3698,2.3697,2.3697,2.3697,0,2.3254,2.3296,2.3313,2.3343,2.3392,2.34,2.3449,2.3464,2.3491,2.3526,2.3525,2.3559,2.3573,2.3611,2.3622,2.3677,2.3686,2.3696,2.3699,2.3697,2.3696,2.3712,2.3709,2.37,2.3699,2.3699,2.3698,0,2.3314,2.3326,2.338,2.341,2.3419,2.3454,2.3481,2.3512,2.3525,2.3571,2.3582,2.3604,2.3648,2.3664,2.3718,2.3726,2.379,2.3788,2.378,2.3781,2.3818,2.3815,2.3931,2.3948,2.385,2.3851,2.3852,0,2.3357,2.339,2.3424,2.3447,2.3464,2.3501,2.3525,2.3536,2.3562,2.3601,2.3628,2.3672,2.3707,2.3779,2.3802,2.3844,2.3845,2.3882,2.3851,2.3849,2.3848,2.3847,2.3852,2.3888,2.3889,2.389,2.3891,0,2.3434,2.3439,2.3473,2.351,2.3539,2.3569,2.3598,2.3618,2.3634,2.3664,2.3708,2.3736,2.3792,2.3837,2.3881,2.3901,2.39,2.3901,2.3912,2.3911,2.3906,2.3912,2.3797,2.3898,2.3897,2.3897,2.3896,2.3896,2.3488,2.3518,2.3547,2.3586,2.361,2.3638,2.3669,2.3687,2.3724,2.3769,2.3774,2.3823,2.3857,2.3916,2.3939,2.398,2.397,2.3985,2.399,2.3994,2.3998,2.3898,2.3988,2.3987,2.3987,2.3987,2.3987,0,2.3566,2.3586,2.3621,2.3663,2.3694,2.3689,2.3722,2.375,2.3793,2.3823,2.3859,2.3913,2.3957,2.3984,2.4029,2.4057,2.4058,2.4069,2.4068,2.4074,2.4003,2.3989,2.4068,2.4068,2.4068,2.4068,2.4068,2.4068,2.3611,2.3662,2.3672,2.3736,2.3756,2.3803,2.3823,2.3851,2.3875,2.3935,2.3971,2.3988,2.4019,2.4067,2.4109,2.4116,2.4134,2.4146,2.4153,2.4086,2.4078,2.407,2.4058,2.415,2.415,2.4221,2.4222,2.4222]},{"header":{"parameterUnit":"m.s-1","parameterCategory":1,"la1":30.2991,"la2":30.254,"lo1":-89.0895,"lo2":-89.0444,"dy":0.0017,"dx":0.0017,"nx":28,"ny":28,"refTime":"2024-08-06T21:00:00:Z","depth":0,"parameterNumber":3,"parameterNumberName":"V-component_of_WINDS"},"data":[0,0,0,0,0,0,0,0,0,0,0,0,0,0,0,0,0,0,0,0,0,0,0,0,0,0,0,0,0,0,0,0,0,0,0,0,0,0,0,0,0,0,0,0,0,0,0,0,0,0,0,0,0,0,0,0,0,0,-1.2742,-1.2741,0,-1.2705,-1.2704,-1.2704,-1.2803,-1.2806,-1.2809,-1.2812,-1.277,-1.2766,-1.2762,0,0,0,0,0,0,0,0,0,0,0,0,0,-1.2896,-1.2893,-1.2742,-1.2741,-1.2741,-1.2705,-1.2704,-1.2704,-1.2802,-1.2806,-1.281,-1.2813,-1.2771,-1.2766,-1.2761,0,0,0,0,0,0,0,0,0,0,0,0,0,-1.2841,-1.2891,-1.2742,-1.2786,-1.2789,-1.2705,-1.2704,-1.2704,-1.2802,-1.2806,-1.2811,-1.2815,-1.2773,-1.2767,-1.2761,-1.2631,0,0,-1.2742,-1.274,0,0,0,0,0,0,0,0,-1.2844,-1.2835,-1.278,-1.2783,-1.2787,-1.2763,-1.2743,-1.2679,-1.28,-1.2797,-1.2812,-1.2817,-1.2763,-1.2758,-1.2741,-1.2629,-1.2627,-1.2742,-1.2738,-1.2736,-1.2734,0,0,0,0,0,0,0,-1.2847,-1.2837,-1.2727,-1.2779,-1.2783,-1.2807,-1.2804,-1.2731,-1.2754,-1.2797,-1.2805,-1.2799,-1.2766,-1.2747,-1.2741,-1.2626,-1.2742,-1.2737,-1.2733,-1.2731,-1.2408,-1.2403,0,0,0,0,0,0,-1.2846,-1.284,-1.2728,-1.2726,-1.2827,-1.28,-1.2797,-1.2766,-1.2755,-1.2758,-1.2795,-1.2804,-1.2755,-1.2748,-1.274,-1.2589,-1.2736,-1.273,-1.2726,-1.2413,-1.2407,-1.2401,0,0,0,0,0,0,-1.2849,-1.2835,-1.273,-1.2785,-1.2773,-1.2793,-1.2757,-1.2763,-1.2744,-1.2754,-1.2758,-1.2771,-1.2758,-1.2748,-1.2658,-1.2589,-1.2727,-1.2722,-1.2419,-1.2411,-1.2404,-1.2284,0,0,0,0,0,0,-1.2853,-1.2836,-1.2787,-1.2783,-1.277,-1.2648,-1.2752,-1.2759,-1.2733,-1.2744,-1.2732,-1.2735,-1.2761,-1.2666,-1.2652,-1.2583,-1.2717,-1.2425,-1.2415,-1.2406,-1.2294,-1.2273,-1.2256,0,0,0,0,0,-1.2858,-1.2753,-1.2784,-1.2769,-1.2709,-1.2644,-1.2637,-1.267,-1.2727,-1.2678,-1.2685,-1.2735,-1.2599,-1.2656,-1.2641,-1.2569,-1.2429,-1.2418,-1.2407,-1.2303,-1.2278,-1.2256,0,0,0,0,0,0,-1.2745,-1.2753,-1.2787,-1.2678,-1.266,-1.2661,-1.26,-1.2642,-1.2606,-1.2618,-1.266,-1.2656,-1.2558,-1.2555,-1.2619,-1.2444,-1.2524,-1.2509,-1.245,-1.2426,-1.2407,-1.241,-1.2712,0,0,0,0,0,-1.2708,-1.2656,-1.2665,-1.2567,-1.2557,-1.258,-1.2553,-1.2581,-1.2563,-1.2556,-1.2556,-1.2536,-1.249,-1.2457,-1.2414,-1.2294,-1.2294,-1.2237,-1.2218,-1.2202,-1.2189,-1.2128,-1.2103,-1.2365,-1.2365,-1.2365,0,0,-1.2629,-1.2627,-1.2591,-1.2545,-1.2534,-1.2479,-1.2573,-1.2509,-1.2469,-1.2546,-1.2461,-1.2461,-1.2442,-1.2337,-1.2291,-1.2331,-1.2117,-1.2188,-1.2175,-1.2171,-1.2114,-1.2089,-1.2067,-1.2357,-1.2359,-1.236,0,0,-1.2459,-1.2452,-1.2371,-1.2359,-1.2343,-1.236,-1.234,-1.2336,-1.2339,-1.2256,-1.2313,-1.2265,-1.2182,-1.2168,-1.2149,-1.1976,-1.2021,-1.1961,-1.1859,-1.1799,-1.1778,-1.176,-1.17,-1.1678,-1.1947,-1.1947,-1.1947,0,-1.2363,-1.2283,-1.2323,-1.2258,-1.2236,-1.2305,-1.2224,-1.221,-1.218,-1.2163,-1.2209,-1.2109,-1.2101,-1.1995,-1.1953,-1.1935,-1.1915,-1.1962,-1.1778,-1.1761,-1.1744,-1.1688,-1.1665,-1.194,-1.1941,-1.1941,-1.1942,0,-1.2167,-1.2111,-1.2048,-1.202,-1.1991,-1.1917,-1.1946,-1.1912,-1.1942,-1.1954,-1.1869,-1.1862,-1.1821,-1.1797,-1.1825,-1.1695,-1.1721,-1.1772,-1.1853,-1.1712,-1.1659,-1.1637,-1.193,-1.1932,-1.1934,-1.1936,0,0,-1.1923,-1.1921,-1.1897,-1.1886,-1.1875,-1.1832,-1.1762,-1.1723,-1.1694,-1.1671,-1.1614,-1.1544,-1.1592,-1.1571,-1.1598,-1.1545,-1.1411,-1.1603,-1.1603,-1.1569,-1.1269,-1.1232,-1.1206,-1.1441,-1.1437,-1.1434,-1.1272,0,-1.1756,-1.1638,-1.1674,-1.1555,-1.1504,-1.157,-1.151,-1.1496,-1.1506,-1.1464,-1.1474,-1.1425,-1.1491,-1.1479,-1.1429,-1.1438,-1.1351,-1.145,-1.1389,-1.1386,-1.1392,-1.1178,-1.1138,-1.0985,-1.1251,-1.1247,-1.1245,0,-1.1545,-1.1518,-1.1394,-1.1394,-1.1374,-1.1319,-1.1288,-1.1247,-1.1233,-1.1244,-1.1222,-1.1261,-1.1193,-1.1275,-1.1182,-1.1248,-1.1225,-1.1225,-1.122,-1.1216,-1.1307,-1.1169,-1.0936,-1.0914,-1.1213,-1.1215,-1.1217,0,-1.1382,-1.1313,-1.1231,-1.122,-1.1217,-1.1177,-1.1174,-1.1165,-1.114,-1.1112,-1.1097,-1.1061,-1.1041,-1.1012,-1.104,-1.1097,-1.0944,-1.1027,-1.0951,-1.095,-1.0916,-1.0918,-1.0677,-1.0899,-1.0899,-1.09,-1.09,0,-1.1192,-1.1114,-1.1158,-1.1107,-1.1023,-1.1064,-1.0979,-1.0983,-1.0975,-1.0927,-1.0981,-1.0934,-1.0975,-1.0932,-1.0953,-1.0874,-1.0864,-1.0871,-1.0878,-1.0867,-1.0866,-1.0853,-1.0864,-1.0894,-1.0895,-1.0896,-1.0897,0,-1.0995,-1.1021,-1.0936,-1.0942,-1.0941,-1.0879,-1.0883,-1.0837,-1.0852,-1.079,-1.0778,-1.08,-1.0752,-1.0778,-1.0728,-1.0743,-1.0641,-1.0661,-1.0646,-1.0652,-1.0575,-1.0582,-1.0318,-1.0286,-1.0527,-1.0525,-1.0523,0,-1.0872,-1.0815,-1.0815,-1.0788,-1.0782,-1.0736,-1.0712,-1.0751,-1.0723,-1.0705,-1.0661,-1.0619,-1.0587,-1.0508,-1.0519,-1.0482,-1.0503,-1.0413,-1.0497,-1.0489,-1.0503,-1.0507,-1.0502,-1.0396,-1.0393,-1.0391,-1.0389,0,-1.0653,-1.067,-1.0634,-1.0603,-1.0573,-1.055,-1.0531,-1.0505,-1.0544,-1.0511,-1.0464,-1.044,-1.0391,-1.0348,-1.0317,-1.0313,-1.0357,-1.0362,-1.0343,-1.0331,-1.0325,-1.0329,-1.0601,-1.0368,-1.037,-1.0372,-1.0373,-1.0374,-1.0491,-1.0444,-1.0437,-1.0396,-1.0387,-1.0369,-1.0327,-1.0337,-1.0299,-1.0264,-1.0289,-1.0234,-1.0224,-1.0187,-1.0178,-1.0135,-1.0171,-1.0143,-1.0136,-1.0128,-1.0119,-1.0332,-1.0129,-1.013,-1.0131,-1.0131,-1.0132,0,-1.0276,-1.0276,-1.0238,-1.0212,-1.0179,-1.0226,-1.0208,-1.0178,-1.0129,-1.0117,-1.0086,-1.0033,-0.9993,-1.0002,-0.9966,-0.993,-0.995,-0.9919,-0.9923,-0.9922,-1.0088,-1.0109,-0.9905,-0.9905,-0.9905,-0.9905,-0.9905,-0.9905,-1.016,-1.0084,-1.01,-1.002,-1.002,-0.9968,-0.9955,-0.9939,-0.993,-0.9869,-0.9837,-0.9844,-0.984,-0.9805,-0.977,-0.9774,-0.9759,-0.9721,-0.9732,-0.9887,-0.991,-0.9931,-0.9951,-0.9717,-0.9717,-0.957,-0.9569,-0.9568]}]]